Hourly Data Report for August 05, 2000

SHERBROOKE A
QUEBEC

45°26'00.000" N
71°41'00.000" W
241.40 m
7028124
71610
YSC

Download Data

Hourly Data (August 2000)
Hourly Data Report for August 5, 2000
TIME
LST
Temp Definition
°C
Dew Point Definition
°C
Rel Hum Definition
%
Precip. Amount Definition
mm

Wind Dir Definition
10's deg

Wind Spd Definition
km/h
Visibility Definition
km
Stn Press Definition
kPa
Hmdx Definition


Wind Chill Definition


Weather Definition


00:00 13.9 11.6 86   15 4 15.0 98.55      
01:00 14.2 10.8 80   19 7 15.0 98.55      
02:00 14.1 10.5 79   23 9 15.0 98.52      
03:00 12.7 10.3 85   26 11 15.0 98.52      
04:00 11.0 9.6 91   23 6 15.0 98.55      
05:00 9.8 9.4 97     0 15.0 98.59      
06:00 13.4 10.6 83   25 4 15.0 98.59      
07:00 15.0 11.3 79   27 7 24.1 98.65     Clear
08:00 16.8 10.9 68   29 11 24.1 98.65     Mainly Clear
09:00 18.4 11.9 66   27 13 24.1 98.65     Mostly Cloudy
10:00 19.2 11.5 61   23 11 24.1 98.65     Mostly Cloudy
11:00 20.1 11.4 57   30 13 24.1 98.59     Mostly Cloudy
12:00 20.2 11.8 58   27 9 24.1 98.55     Mostly Cloudy
13:00 20.8 12.6 59   29 13 24.1 98.55     Cloudy
14:00 21.0 12.7 59   30 11 24.1 98.55     Mostly Cloudy
15:00 21.2 11.8 55   30 15 24.1 98.55     Mostly Cloudy
16:00 20.3 13.1 63   32 9 24.1 98.55     Mostly Cloudy
17:00 22.2 12.6 55   28 7 15.0 98.49 25    
18:00 20.9 12.6 59   11 6 15.0 98.52      
19:00 18.1 13.5 74     0 15.0 98.55      
20:00 14.0 12.2 89   14 4 15.0 98.59      
21:00 12.8 11.8 94     0 15.0 98.65      
22:00 10.9 10.7 99   5 4 11.3 98.65      
23:00 10.4 10.0 97   10 4 12.9 98.69      

Notes on Data Quality.

Legend

  • E = Estimated
  • M = Missing
  • NA = Not Available*
  • [empty] = Indicates an unobserved value
Date modified: